Location: ??????????
(48.4699°N, 37.9573°E)
Time: 20:06:56
(UTC+00:00)

SMAP - Pass Details

Date: 20 January 2021
Orbit: 681 x 683 km, 98.1° (Epoch: 01 March)

Event Time Altitude Azimuth Distance (km) Brightness Sun altitude
Rises 14:56:32 0° 171° (S) 3,032 6.6 -8.1°
Reaches altitude 10° 14:58:46 10° 174° (S) 2,122 5.8 -8.4°
Maximum altitude 15:03:24 69° 258° (WSW) 735 3.5 -9.1°
Drops below altitude 10° 15:08:04 10° 342° (NNW) 2,138 5.6 -9.9°
Sets 15:10:20 0° 345° (NNW) 3,058 6.4 -10.2°
